Back to catalog

FENGYUN 1C DEB

AliveSSO
NORAD 30369·DEBRIS·🇨🇳 China

Launched May 10, 1999 from Taiyuan Satellite Launch Center

Loading…

Next Passes (next 24 hours)

TLE

FreshSource: Space-Track

Epoch: Sep 14, 2026, 06:17 UTC

1 30369U 99025ACG 26257.26224528  .00000182  00000-0  11606-3 0  9997
2 30369  98.7355 252.4293 0100102 132.2145 240.1631 14.12258088 11366

Track FENGYUN 1C DEB in real time with AllMySat

Download on the App Store